Regional Weather Roundup
Issued by NWS

Home | Current Version | Previous Version | Graphics & Text | Print | Product List | Glossary On
Versions: 1 2 3 4 5 6 7 8 9 10 11 12 13 14 15 16 17 18 19 20 21 22 23 24 25 26 27 28 29 30 31 32 33 34 35 36 37 38 39 40 41 42 43 44 45 46 47 48 49 50
000
ASUS43 KFSD 101502
RWRSD

WEATHER ROUNDUP FOR SOUTH DAKOTA
NATIONAL WEATHER SERVICE SIOUX FALLS SD
900 AM CST SAT DEC 10 2016

NOTE: "FAIR" INDICATES FEW OR NO CLOUDS BELOW 12,000 FEET WITH NO
SIGNIFICANT WEATHER AND/OR OBSTRUCTIONS TO VISIBILITY.


SDZ001>005-009-010-012>017-101600-
NORTHWEST AND NORTH CENTRAL SOUTH DAKOTA

CITY           SKY/WX    TMP DP  RH WIND       PRES   REMARKS
BUFFALO          N/A      0  -4  83 SE16      29.92F WCI -20
FAITH            N/A     -1  -4  87 SE16      30.11F WCI -21
MOBRIDGE       CLOUDY    -1  -9  68 E8        30.25F WCI -15
$$

SDZ012>016-024>037-041>051-057-063-072>074-101600-
SOUTHWEST AND SOUTH CENTRAL SOUTH DAKOTA

CITY           SKY/WX    TMP DP  RH WIND       PRES   REMARKS
RAPID CTY ARPT CLOUDY     2  -2  83 SE8       29.99F WCI -12
PIERRE         FLURRIES   1  -4  79 E13       30.24F WCI -17
CUSTER         CLOUDY    10   6  84 S3        29.77F
ELLSWORTH AFB  CLOUDY     1  -3  84 E10       29.97F WCI -15
PHILIP         CLOUDY     2  -2  83 E14       30.15F WCI -16
PINE RIDGE     CLOUDY     6   3  87 E12       29.97F WCI  -9
SPEARFISH      FAIR       3   0  85 CALM      29.89F
WINNER         CLOUDY     7   2  80 E15       30.19F WCI -10
$$

SDZ004>011-016>023-039-040-101600-
NORTHEAST SOUTH DAKOTA

CITY           SKY/WX    TMP DP  RH WIND       PRES   REMARKS
ABERDEEN       CLOUDY    -4 -12  68 NE9       30.38F WCI -20
WATERTOWN      LGT SNOW   1  -3  83 SE6       30.32F FOG     WCI -10
BROOKINGS      FLURRIES   3   0  85 E10       30.31F WCI -12
SISSETON         N/A     -5 -10  79 CALM      30.42F
$$

SDZ017-020-022-023-036>040-048>070-101600-
SOUTHEAST SOUTH DAKOTA

CITY           SKY/WX    TMP DP  RH WIND       PRES   REMARKS
SIOUX FALLS    LGT SNOW  11   7  84 E14       30.33F VSB 1   WCI  -5
HURON          LGT SNOW   7   3  84 E10       30.33F VSB 1   WCI  -8
CHAMBERLAIN    CLOUDY     6   2  84 E10       30.25F FOG     WCI  -9
MITCHELL       LGT SNOW  10   7  87 E10       30.32F VSB 3/4 WCI  -4
YANKTON        CLOUDY    16  12  86 E13       30.30F WCI   2
$$

ABBREVIATIONS USED IN REMARKS
   TC - TEMPERATURE IN CELSIUS
  WCI - WIND CHILL INDEX
   HX - HEAT INDEX
  VSB - VISIBILITY





USA.gov is the U.S. government's official web portal to all federal, state and local government web resources and services.